Orbital Elements at Epoch 2459200.5 (2020-Dec-17.0) TDB
Reference: JPL 13 (heliocentric ecliptic J2000)
Element | Value | Uncertainty (1-sigma) | Units |
e | .1526352722884296 | 8.4328e-08 | |
a | 2.679680365213065 | 2.7573e-08 | au |
q | 2.27066662302281 | 2.3168e-07 | au |
i | 12.71723515690851 | 1.0975e-05 | deg |
node | 338.6110873537417 | 2.3374e-05 | deg |
peri | 140.3381876312414 | 3.6524e-05 | deg |
M | 252.4834656796424 | 2.757e-05 | deg |
tp | 2459679.015129986588 (2022-Apr-09.51512999) | 0.00012446 | TDB |
period | 1602.222838413742 4.39 | 2.4729e-05 6.77e-08 | d yr |
n | .2246878470140975 | 3.4679e-09 | deg/d |
Q | 3.088694107403319 | 3.1782e-08 | au |
|
| | Orbit Determination Parameters
Additional Information
|